Historical Weather Data

Soule Park Golf Course
1033 East Ojai Ave
Ojai, CA 93023
Date ET
(Inches)
Rain
(Inches)
Temp °F
Humidity
Avg
Wind MPH
Avg
Solar Wm2
Avg
High Ave Low
5/1/17 0.25 0.00 86.9 68.1 47.8 45 3.1 347
5/2/17 0.25 0.00 88.1 69.5 49.5 54 2.8 342
5/3/17 0.24 0.00 90.5 70.1 51.6 61 2.7 334
5/4/17 0.24 0.00 88.3 67.4 50.1 68 2.9 343
5/5/17 0.16 0.00 75.1 60.1 53.2 83 3.1 276
5/6/17 0.06 0.07 64.3 55.1 48.6 82 2.6 104
5/7/17 0.10 0.11 63.9 51.5 45.5 79 2.2 191
5/8/17 0.22 0.00 77.2 59.1 40.6 68 3.1 346
5/9/17 0.14 0.00 73.6 58.0 46.3 82 2.9 231
5/10/17 0.05 0.00 65.6 59.8 56.8 78 1.8 57
5/11/17 0.21 0.00 74.7 62.3 49.7 74 2.6 346
5/12/17 0.21 0.00 75.8 61.7 46.8 70 3.0 350
5/13/17 0.23 0.00 76.6 61.3 44.0 48 3.1 366
5/14/17 0.19 0.00 69.6 57.3 42.2 60 3.3 317
5/15/17 0.10 0.00 67.1 55.5 47.1 72 2.8 181
5/16/17 0.19 0.00 70.0 55.9 39.9 71 2.9 346
5/17/17 0.21 0.00 74.4 60.1 44.1 64 3.0 353
5/18/17 0.25 0.00 80.7 64.3 44.9 53 3.3 362
5/19/17 0.27 0.00 87.7 68.6 48.0 39 3.3 366
5/20/17 0.29 0.00 92.7 73.2 50.9 36 3.4 366
5/21/17 0.28 0.00 92.3 74.6 55.1 41 3.0 362
5/22/17 0.27 0.00 91.8 71.7 51.2 53 2.5 364
5/23/17 0.26 0.00 91.5 69.3 50.0 59 2.6 364
5/24/17 0.21 0.00 83.0 62.4 49.5 72 3.2 333
5/25/17 0.07 0.01 64.7 58.0 53.5 80 2.6 106
5/26/17 0.11 0.00 69.3 60.4 53.0 71 2.7 152
5/27/17 0.22 0.00 73.2 60.1 44.4 71 3.0 358
5/28/17 0.24 0.00 82.5 64.7 46.7 66 2.8 362
5/29/17 0.22 0.00 81.5 63.5 49.0 72 2.8 349
5/30/17 0.19 0.00 77.8 61.1 50.6 80 2.9 315
5/31/17 0.14 0.00 75.0 62.2 53.8 79 2.8 234